Skip to main content Skip to accessibility
This website is not compatible with your web browser. You should install a newer browser. If you live in Jersey and need help upgrading call the States of Jersey web team on 440099.
Homegov.je

Information and public services for the Island of Jersey

L'înformâtion et les sèrvices publyis pouor I'Île dé Jèrri

  • Choose the service you want to log in to:

  • gov.je

    Update your notification preferences

  • one.gov.je

    Access government services

  • CAESAR

    Clear goods through customs or claim relief

  • Talentlink

    View or update your States of Jersey job application

Local METARs

METAR EGJJ 261320Z 27023G34KT 9999 -SHRA FEW013 SCT017CB BKN042 12/10 Q1002

METAR EGJB 261320Z 27019KT 9999 VCSH FEW016CB SCT018 13/09 Q1002

METAR EGJA 261320Z 28022KT 9999 VCSH FEW013 SCT015CB 12/08 Q1001

METAR LFRD 261330Z AUTO 26013KT 9999 FEW029/// ///TCU 11/08 Q1005 TEMPO 27020G35KT 2000 TSRA BKN020CB

METAR LFRC 261330Z AUTO /////KT 9999 BKN021/// BKN035/// BKN044/// ///TCU 12/09 Q1001

 

 

 

​Apologies to the disruption to normal service. Commercial Aviation Services are available from the Jersey Met Forecaster 01534 448765.

Times are in Greenwich Mean Time (GMT) and not British Summer Time (BST). They will be one hour different during BST.

Back to top
rating button